Location: Innsbruck
(47.2657°N, 11.3914°E)
Time: 10:45:24
(UTC+01:00)

XW-2F - Pass Details

Date: 08 December 2021
Orbit: 495 x 515 km, 97.5° (Epoch: 15 January)

Event Time Altitude Azimuth Distance (km) Brightness Sun altitude
Rises 05:20:10 0° 32° (NNE) 2,648 ? -24.1°
Reaches altitude 10° 05:23:21 10° 61° (ENE) 1,751 ? -23.6°
Maximum altitude 05:25:06 13° 89° (E) 1,571 ? -23.3°
Drops below altitude 10° 05:26:52 10° 118° (ESE) 1,740 ? -23.0°
Sets 05:29:59 0° 147° (SSE) 2,615 ? -22.5°
